Crane Lake, MN

9:01 PM CDT on October 13, 2019 (GMT -0500)
Crane Lake

Weather History for KCDD - June, 2019

Change the Weather History Date:

Thursday, June 6, 2019

  Actual Average Record
Temperature  
Mean Temperature 61 °F -  
Max Temperature 78 °F 67 °F 82 °F (1999)
Min Temperature 44 °F 45 °F 30 °F (2013)
Degree Days  
Heating Degree Days 4    
Growing Degree Days 11 (Base 50)    
Moisture  
Dew Point 55 °F    
Average Humidity 76    
Maximum Humidity 100    
Minimum Humidity 47    
Precipitation  
Precipitation 0.00 in - - ()
Sea Level Pressure  
Sea Level Pressure 29.89 in    
Wind  
Wind Speed 1 mph (NE)    
Max Wind Speed 7 mph    
Max Gust Speed -    
Visibility 8 miles    
Events Fog    
Averages and records for this station are not official NWS values.
T = Trace of Precipitation, MM = Missing Value Source: NWS Daily Summary

Daily Weather History Graph

Daily Weather History Graph

Search for Another Location

Airport or City:

Astronomy

Jun. 06, 2019 Rise Set
Actual Time 5:10 AM CDT 9:06 PM CDT
Civil Twilight 4:30 AM CDT 9:47 PM CDT
Nautical Twilight 3:33 AM CDT 10:44 PM CDT
Astronomical Twilight 2:04 AM CDT 12:15 AM CDT
Moon 8:21 AM CDT (6/6) No Moon Set
Length of Visible Light 17h 17m
Length of Day
15h 55m
Waxing Crescent, 14% of the Moon is Illuminated
Jun 6
Waxing Crescent
Jun 10
First Quarter
Jun 17
Full
Jun 25
Last Quarter
Jul 2
New

Hourly Weather History & Observations

Time (CDT) Temp. Dew Point Humidity Pressure Visibility Wind Dir Wind Speed Gust Speed Precip Events Conditions
1:28 AM 46.4 °F 46.4 °F 100% 29.89 in 7.0 mi Calm Calm - N/A   Clear
1:55 AM 48.2 °F 48.2 °F 100% 29.89 in 4.0 mi Calm Calm - N/A   Mostly Cloudy
2:55 AM 44.6 °F 44.6 °F 100% 29.90 in 0.8 mi Calm Calm - N/A   Overcast
4:55 AM 44.6 °F 44.6 °F 100% 29.91 in 0.2 mi Calm Calm - N/A Fog Fog
5:07 AM 46.4 °F 46.4 °F 100% 29.91 in 0.5 mi Calm Calm - N/A Fog Fog
5:55 AM 48.2 °F 48.2 °F 100% 29.91 in 0.5 mi Calm Calm - N/A Fog Fog
6:07 AM 50.0 °F 50.0 °F 100% 29.91 in 0.2 mi Calm Calm - N/A Fog Fog
6:55 AM 51.8 °F 51.8 °F 100% 29.93 in 1.0 mi Calm Calm - N/A   Overcast
7:55 AM 53.6 °F 53.6 °F 100% 29.92 in 3.0 mi Calm Calm - N/A   Overcast
9:28 AM 55.4 °F 55.4 °F 100% 29.92 in 10.0 mi Calm Calm - N/A   Overcast
9:55 AM 57.2 °F 55.4 °F 94% 29.92 in 10.0 mi Calm Calm - N/A   Overcast
11:31 AM 64.4 °F 59.0 °F 83% 29.91 in 10.0 mi Calm Calm - N/A   Clear
11:55 AM 66.2 °F 57.2 °F 73% 29.90 in 10.0 mi Calm Calm - N/A   Clear
12:55 PM 71.6 °F 57.2 °F 60% 29.89 in 10.0 mi Calm Calm - N/A   Clear
1:11 PM 71.6 °F 55.4 °F 57% 29.88 in 10.0 mi South 6.9 mph - N/A   Clear
1:55 PM 73.4 °F 57.2 °F 57% 29.87 in 10.0 mi Calm Calm - N/A   Clear
2:55 PM 75.2 °F 59.0 °F 57% 29.86 in 10.0 mi NNE 4.6 mph - N/A   Scattered Clouds
3:31 PM 75.2 °F 59.0 °F 57% 29.87 in 10.0 mi North 5.8 mph - N/A   Scattered Clouds
3:55 PM 77.0 °F 59.0 °F 54% 29.87 in 10.0 mi ENE 5.8 mph - N/A   Scattered Clouds
4:11 PM 77.0 °F 57.2 °F 50% 29.86 in 10.0 mi NE 4.6 mph - N/A   Clear
4:31 PM 77.0 °F 57.2 °F 50% 29.86 in 10.0 mi NE 3.5 mph - N/A   Scattered Clouds
4:55 PM 78.8 °F 57.2 °F 47% 29.86 in 10.0 mi NE 4.6 mph - N/A   Clear
5:11 PM 78.8 °F 57.2 °F 47% 29.86 in 10.0 mi NE 5.8 mph - N/A   Clear
5:51 PM 78.8 °F 57.2 °F 47% 29.86 in 10.0 mi East 3.5 mph - N/A   Clear
5:55 PM 78.8 °F 57.2 °F 47% 29.86 in 10.0 mi NNE 4.6 mph - N/A   Clear
6:55 PM 78.8 °F 57.2 °F 47% 29.86 in 10.0 mi Calm Calm - N/A   Clear
7:11 PM 77.0 °F 57.2 °F 50% 29.87 in 10.0 mi Calm Calm - N/A   Clear
7:55 PM 75.2 °F 57.2 °F 53% 29.88 in 10.0 mi Calm Calm - N/A   Scattered Clouds
8:51 PM 66.2 °F 60.8 °F 83% 29.88 in 10.0 mi Calm Calm - N/A   Clear
8:55 PM 66.2 °F 60.8 °F 83% 29.88 in 10.0 mi Calm Calm - N/A   Clear
9:10 PM 62.6 °F 60.8 °F 94% 29.88 in 10.0 mi Calm Calm - N/A   Clear
9:55 PM 60.8 °F 57.2 °F 88% 29.90 in 10.0 mi Calm Calm - N/A   Clear
10:31 PM 57.2 °F 57.2 °F 100% 29.90 in 10.0 mi Calm Calm - N/A   Clear
10:55 PM 55.4 °F 55.4 °F 100% 29.90 in 10.0 mi Calm Calm - N/A   Clear
11:31 PM 55.4 °F 53.6 °F 94% 29.90 in 10.0 mi Calm Calm - N/A   Clear